Location: *
(42.0175°N, 9.4056°E)
Time: 18:52:34
(UTC+00:00)

CZ-4C R/B - Pass Details

Date: 25 August 2019
Orbit: 656 x 1346 km, 63.4° (Epoch: 16 September)

Event Time Altitude Azimuth Distance (km) Brightness Sun altitude
Exits shadow 21:43:11 40° 18° (NNE) 1,197 3.1 -32.5°
Drops below altitude 10° 21:47:06 10° 32° (NNE) 2,585 5.0 -32.8°
Sets 21:49:53 0° 35° (NE) 3,645 5.8 -33.1°
